Temp
-2 -2 -2 -1 -1 -1 -1 -1 -1 -1 -2 -2 -2 -2 -2 -3 -4 -4 -5 -5 -5 -6 -5 -5 -5 -6 -6 -5 -4 -4 -4 -5 -6 -5 -6 -6 -6 -6 -6 -6 -5 -6 -5 -5 -6
-2 -2 -2 -2 -1 -1 -1 -1 -1 -2 -2 -2 -2 -2 -2 -2 -3 -4 -5 -5 -5 -5 -6 -6 -6 -6 -5 -5 -4 -5 -4 -5 -6 -6 -6 -6 -6 -6 -6 -6 -6 -5 -5 -5 -5
-2 -2 -2 -2 -2 -1 -1 -1 -1 -2 -2 -2 -3 -2 -2 -2 -2 -5 -4 -5 -5 -5 -5 -4 -6 -5 -5 -5 -5 -5 -5 -4 -5 -6 -6 -6 -6 -6 -6 -6 -6 -5 -5 -5 -4
-2 -2 -2 -2 -2 -2 -2 -2 -2 -2 -3 -3 -3 -3 -3 -3 -3 -3 -5 -5 -5 -5 -6 -5 -6 -6 -6 -5 -5 -5 -5 -5 -5 -5 -5 -5 -6 -5 -6 -6 -6 -5 -5 -5 -5
-2 -2 -2 -2 -2 -2 -2 -2 -2 -3 -3 -3 -3 -3 -3 -3 -3 -3 -4 -5 -5 -5 -6 -6 -6 -6 -6 -6 -5 -5 -4 -4 -5 -4 -5 -5 -5 -5 -5 -6 -6 -5 -5 -5 -5
-2 -2 -2 -2 -2 -2 -2 -3 -3 -3 -3 -3 -3 -3 -4 -4 -4 -3 -3 -4 -5 -6 -6 -6 -6 -6 -5 -5 -5 -5 -4 -5 -5 -4 -4 -4 -5 -4 -4 -5 -5 -5 -5 -4 -4
-3 -3 -3 -2 -3 -3 -3 -3 -3 -3 -3 -3 -3 -4 -4 -4 -4 -4 -4 -4 -5 -6 -6 -6 -5 -5 -5 -5 -6 -5 -5 -4 -5 -5 -4 -4 -4 -4 -4 -4 -4 -5 -4 -4 -4
-3 -3 -3 -3 -3 -3 -3 -3 -3 -3 -4 -3 -4 -4 -4 -4 -4 -4 -4 -4 -5 -5 -5 -5 -6 -6 -6 -6 -5 -5 -5 -6 -6 -5 -4 -4 -4 -5 -4 -4 -4 -4 -4 -4 -3
-4 -3 -3 -3 -3 -3 -3 -3 -3 -4 -4 -4 -4 -4 -4 -4 -4 -4 -4 -5 -4 -5 -5 -6 -6 -6 -7 -6 -5 -5 -5 -6 -6 -6 -5 -5 -5 -4 -5 -4 -4 -4 -4 -4 -4
-4 -4 -3 -3 -3 -3 -3 -3 -3 -3 -3 -3 -4 -4 -4 -4 -4 -4 -5 -5 -5 -5 -5 -5 -6 -6 -7 -6 -6 -5 -5 -5 -6 -6 -6 -5 -5 -4 -4 -5 -5 -4 -4 -5 -4
-4 -4 -4 -3 -3 -4 -3 -4 -4 -4 -4 -3 -4 -4 -4 -4 -4 -4 -5 -5 -5 -5 -5 -5 -6 -6 -6 -7 -7 -6 -5 -4 -6 -6 -6 -5 -5 -5 -5 -4 -5 -5 -4 -4 -5
-4 -4 -4 -4 -4 -4 -4 -4 -4 -4 -4 -4 -4 -3 -4 -4 -4 -4 -5 -5 -5 -5 -5 -5 -5 -5 -5 -6 -7 -7 -6 -5 -5 -7 -7 -7 -7 -6 -6 -6 -5 -5 -5 -5 -5
-4 -4 -4 -4 -4 -4 -4 -4 -4 -4 -4 -4 -4 -4 -4 -4 -4 -4 -5 -5 -5 -5 -5 -5 -5 -5 -5 -5 -6 -7 -6 -6 -5 -6 -6 -6 -7 -7 -6 -6 -6 -5 -5 -4 -4
-5 -5 -4 -4 -4 -4 -4 -4 -4 -4 -4 -4 -4 -4 -4 -4 -4 -4 -4 -4 -5 -5 -5 -4 -4 -4 -5 -6 -6 -7 -6 -6 -6 -5 -6 -6 -7 -7 -7 -6 -6 -5 -5 -6 -5
-4 -4 -5 -5 -5 -5 -5 -5 -4 -4 -4 -4 -4 -3 -4 -4 -4 -4 -4 -4 -4 -4 -4 -4 -4 -5 -5 -6 -6 -6 -5 -5 -5 -5 -5 -6 -6 -6 -6 -7 -6 -6 -6 -6 -5
-4 -4 -4 -4 -5 -5 -5 -5 -5 -4 -4 -4 -4 -4 -4 -3 -4 -4 -4 -4 -4 -4 -4 -4 -4 -4 -5 -5 -6 -6 -6 -5 -5 -5 -5 -6 -5 -6 -6 -6 -6 -6 -6 -6 -5
-4 -4 -4 -4 -4 -5 -5 -5 -5 -5 -4 -4 -4 -4 -4 -4 -4 -4 -4 -4 -4 -4 -5 -5 -4 -5 -4 -5 -5 -6 -6 -5 -4 -5 -5 -5 -4 -5 -5 -6 -6 -6 -6 -6 -6
-5 -4 -4 -5 -5 -5 -4 -5 -4 -4 -4 -4 -5 -4 -4 -4 -4 -4 -4 -4 -4 -5 -5 -4 -5 -5 -5 -5 -5 -5 -4 -4 -3 -4 -4 -3 -4 -5 -5 -5 -5 -6 -6 -6 -6
-5 -5 -5 -5 -5 -5 -5 -5 -4 -4 -4 -5 -5 -4 -4 -4 -4 -5 -4 -4 -4 -4 -5 -5 -5 -5 -5 -5 -5 -6 -5 -5 -4 -3 -3 -3 -3 -4 -5 -5 -6 -6 -6 -6 -6
-5 -5 -5 -5 -5 -5 -5 -5 -5 -5 -5 -4 -5 -5 -5 -5 -5 -5 -5 -5 -5 -5 -4 -4 -5 -4 -4 -4 -5 -5 -6 -6 -5 -4 -4 -3 -3 -4 -5 -5 -6 -6 -6 -6 -6
-5 -5 -5 -5 -6 -6 -5 -5 -5 -5 -5 -5 -4 -5 -5 -5 -5 -5 -5 -5 -5 -5 -5 -5 -5 -5 -5 -4 -5 -5 -5 -6 -6 -5 -4 -4 -3 -4 -5 -5 -6 -6 -6 -5 -6
-5 -5 -5 -5 -5 -5 -5 -5 -5 -5 -5 -5 -5 -5 -5 -5 -5 -6 -6 -5 -5 -6 -6 -5 -5 -6 -6 -6 -5 -5 -4 -5 -5 -5 -5 -4 -3 -4 -4 -5 -5 -6 -6 -6 -5
-6 -5 -5 -5 -5 -5 -5 -5 -5 -5 -5 -5 -5 -5 -5 -5 -6 -6 -6 -6 -6 -6 -6 -6 -6 -5 -6 -7 -6 -6 -6 -5 -5 -5 -5 -5 -4 -5 -4 -4 -5 -5 -6 -6 -6
-6 -6 -5 -5 -5 -5 -5 -5 -5 -5 -5 -5 -5 -5 -6 -6 -6 -7 -7 -7 -7 -7 -7 -7 -7 -7 -6 -6 -6 -7 -7 -7 -7 -6 -5 -5 -4 -5 -5 -5 -4 -4 -4 -6 -6
-6 -6 -6 -5 -5 -5 -5 -5 -5 -5 -5 -6 -6 -6 -6 -6 -6 -6 -7 -7 -7 -8 -9 -9 -8 -8 -8 -7 -7 -7 -7 -8 -8 -7 -6 -5 -5 -5 -5 -5 -5 -4 -5 -4 -5
-7 -6 -6 -6 -6 -6 -6 -7 -7 -7 -6 -6 -6 -6 -6 -7 -7 -7 -7 -7 -7 -7 -8 -9 -10 -10 -9 -9 -8 -7 -7 -7 -8 -8 -8 -7 -5 -5 -6 -5 -5 -5 -5 -5 -5
-7 -7 -7 -6 -6 -7 -7 -7 -7 -7 -7 -7 -7 -7 -7 -7 -7 -7 -7 -7 -8 -8 -8 -8 -9 -9 -9 -10 -10 -9 -9 -8 -8 -8 -8 -8 -7 -6 -5 -6 -6 -6 -6 -6 -5
Height
5889 5890 5892 5893 5893 5894 5894 5893 5893 5892 5892 5893 5893 5894 5894 5894 5897 5899 5899 5900 5898 5897 5897 5898 5897 5898 5899 5900 5900 5899 5898 5895 5893 5893 5894 5893 5892 5891 5891 5891 5892 5895 5897 5897 5898
5889 5890 5891 5893 5893 5894 5894 5894 5893 5893 5892 5893 5894 5894 5895 5895 5897 5900 5900 5902 5901 5900 5900 5901 5900 5901 5902 5902 5901 5901 5901 5899 5897 5896 5897 5895 5895 5895 5896 5894 5893 5896 5898 5899 5901
5889 5890 5891 5892 5893 5893 5894 5894 5894 5893 5893 5893 5894 5895 5895 5897 5897 5900 5901 5903 5903 5902 5901 5900 5903 5905 5906 5906 5903 5902 5903 5902 5901 5901 5901 5899 5898 5898 5899 5898 5898 5898 5899 5900 5903
5889 5890 5891 5892 5892 5893 5893 5894 5894 5894 5894 5894 5894 5894 5895 5898 5899 5899 5901 5904 5905 5905 5904 5904 5906 5907 5906 5907 5908 5907 5905 5907 5906 5905 5904 5902 5902 5901 5902 5901 5900 5901 5902 5902 5905
5888 5889 5890 5891 5892 5893 5893 5893 5894 5895 5895 5895 5894 5894 5895 5896 5899 5900 5901 5903 5905 5907 5907 5908 5907 5906 5906 5907 5909 5910 5911 5910 5910 5907 5907 5906 5905 5906 5905 5905 5905 5905 5905 5906 5909
5887 5888 5889 5890 5891 5892 5893 5894 5894 5895 5895 5895 5896 5895 5895 5895 5897 5899 5901 5902 5904 5907 5908 5908 5908 5908 5906 5908 5910 5912 5913 5912 5913 5911 5910 5910 5908 5910 5909 5909 5908 5908 5909 5910 5912
5886 5887 5888 5889 5890 5891 5892 5893 5894 5895 5895 5895 5896 5896 5896 5896 5896 5898 5899 5901 5903 5904 5907 5908 5907 5907 5907 5910 5911 5912 5912 5913 5911 5912 5913 5912 5912 5912 5913 5913 5914 5911 5911 5915 5916
5885 5887 5887 5888 5889 5891 5891 5892 5893 5894 5895 5895 5896 5897 5897 5897 5896 5897 5899 5899 5900 5903 5902 5903 5904 5905 5906 5909 5911 5913 5912 5914 5914 5914 5914 5914 5913 5913 5915 5917 5918 5917 5913 5915 5918
5884 5885 5886 5887 5888 5889 5890 5891 5892 5893 5893 5894 5896 5897 5898 5898 5898 5898 5898 5898 5900 5902 5904 5906 5906 5906 5909 5910 5911 5911 5911 5911 5914 5915 5915 5915 5915 5915 5916 5917 5919 5920 5918 5917 5919
5885 5885 5885 5886 5887 5888 5889 5891 5891 5893 5893 5894 5896 5898 5898 5899 5898 5900 5900 5900 5901 5903 5904 5904 5905 5906 5908 5910 5910 5910 5910 5910 5910 5914 5915 5916 5916 5916 5916 5917 5919 5920 5919 5918 5920
5886 5886 5886 5886 5888 5889 5890 5891 5894 5894 5893 5894 5895 5895 5897 5898 5898 5900 5901 5901 5902 5903 5905 5905 5906 5906 5907 5910 5911 5911 5911 5909 5910 5912 5913 5915 5916 5917 5917 5918 5919 5921 5920 5920 5921
5887 5887 5887 5887 5888 5889 5890 5891 5892 5893 5893 5894 5895 5895 5896 5898 5899 5899 5901 5902 5901 5903 5904 5906 5906 5906 5908 5910 5911 5912 5912 5911 5910 5911 5913 5915 5916 5917 5917 5918 5918 5920 5922 5922 5921
5887 5887 5888 5888 5889 5890 5890 5891 5891 5892 5893 5894 5895 5895 5896 5898 5899 5899 5900 5901 5901 5902 5903 5905 5906 5906 5909 5910 5910 5910 5912 5913 5914 5912 5913 5913 5914 5916 5916 5917 5919 5919 5921 5922 5922
5886 5887 5887 5888 5890 5890 5890 5891 5892 5892 5893 5895 5895 5896 5897 5898 5899 5899 5899 5902 5901 5902 5902 5904 5904 5906 5908 5909 5910 5910 5912 5912 5913 5914 5914 5914 5916 5916 5916 5918 5919 5919 5919 5921 5921
5885 5886 5886 5886 5888 5889 5891 5890 5891 5892 5892 5893 5893 5895 5896 5898 5899 5899 5900 5900 5901 5901 5903 5904 5903 5904 5905 5906 5908 5910 5911 5912 5911 5911 5912 5914 5916 5916 5917 5918 5917 5918 5919 5920 5920
5882 5883 5884 5885 5886 5887 5888 5888 5889 5891 5890 5892 5893 5894 5895 5896 5897 5898 5899 5900 5901 5901 5901 5902 5903 5904 5905 5906 5907 5907 5909 5911 5911 5910 5911 5911 5913 5916 5918 5918 5917 5917 5918 5918 5918
5879 5879 5881 5882 5883 5883 5884 5886 5887 5886 5889 5891 5891 5892 5893 5894 5895 5895 5897 5898 5900 5901 5900 5900 5902 5903 5903 5904 5905 5906 5906 5909 5910 5909 5910 5909 5910 5913 5914 5916 5917 5917 5916 5915 5915
5875 5875 5877 5877 5878 5879 5880 5882 5882 5883 5885 5887 5887 5888 5889 5891 5892 5893 5894 5895 5896 5897 5898 5899 5900 5901 5903 5903 5902 5902 5904 5905 5905 5907 5908 5907 5910 5910 5912 5914 5916 5916 5916 5914 5913
5870 5870 5872 5873 5874 5875 5876 5876 5876 5878 5880 5883 5884 5884 5885 5886 5889 5890 5891 5892 5892 5893 5895 5895 5896 5897 5899 5899 5900 5901 5902 5903 5902 5904 5905 5907 5910 5910 5910 5911 5913 5915 5915 5914 5912
5865 5865 5867 5868 5868 5870 5871 5871 5870 5872 5874 5877 5879 5879 5880 5881 5885 5886 5886 5887 5887 5888 5888 5892 5893 5893 5895 5895 5897 5899 5901 5900 5900 5899 5901 5904 5906 5909 5909 5908 5910 5911 5912 5912 5911
5859 5860 5862 5862 5863 5864 5865 5865 5866 5868 5869 5870 5871 5873 5875 5875 5877 5878 5882 5882 5881 5882 5884 5887 5889 5891 5890 5892 5891 5893 5894 5896 5896 5895 5897 5899 5903 5903 5904 5904 5907 5910 5910 5909 5910
5853 5854 5855 5856 5858 5859 5860 5860 5861 5861 5862 5862 5863 5865 5868 5870 5871 5872 5874 5875 5877 5877 5878 5878 5879 5885 5885 5885 5885 5887 5888 5888 5888 5893 5892 5892 5900 5898 5899 5899 5901 5905 5906 5905 5906
5847 5847 5848 5849 5850 5851 5852 5853 5852 5853 5854 5855 5855 5856 5859 5860 5862 5863 5865 5867 5869 5870 5870 5872 5871 5875 5880 5881 5879 5878 5882 5883 5884 5884 5885 5886 5894 5894 5894 5893 5894 5896 5899 5900 5901
5840 5840 5841 5842 5842 5843 5843 5844 5845 5845 5846 5846 5846 5847 5849 5850 5851 5852 5854 5855 5857 5860 5861 5861 5863 5865 5868 5872 5874 5872 5872 5874 5874 5873 5878 5877 5883 5887 5887 5888 5889 5891 5892 5894 5895
5832 5832 5832 5833 5833 5833 5834 5835 5835 5835 5836 5836 5837 5837 5838 5839 5841 5841 5842 5843 5844 5846 5848 5849 5850 5851 5854 5857 5859 5862 5866 5865 5863 5865 5864 5871 5871 5878 5879 5878 5881 5884 5886 5888 5889
5823 5824 5824 5824 5823 5824 5824 5825 5826 5825 5826 5827 5827 5827 5827 5828 5829 5828 5829 5831 5831 5832 5833 5835 5836 5836 5838 5841 5842 5844 5850 5853 5854 5854 5853 5858 5862 5866 5868 5873 5875 5877 5878 5881 5884
5812 5813 5814 5814 5814 5815 5816 5816 5817 5817 5816 5816 5817 5818 5817 5817 5818 5817 5816 5817 5817 5818 5819 5819 5819 5820 5820 5824 5826 5826 5830 5837 5839 5841 5845 5845 5850 5853 5858 5864 5866 5867 5869 5874 5876
Wind_Speed
9 9 9 7 3 2 2 2 3 3 3 4 3 3 3 4 8 13 13 15 16 16 16 19 20 15 11 4 9 13 15 18 21 18 16 16 16 16 13 10 15 15 13 17 19
8 9 10 9 7 4 1 1 2 1 2 2 2 2 4 4 5 12 8 13 13 14 14 9 9 8 9 11 16 20 17 17 20 18 16 15 16 16 11 7 10 14 16 14 16
7 8 8 9 8 7 4 1 2 0 1 3 3 3 3 4 1 10 9 10 10 10 9 8 7 6 9 10 16 17 15 16 17 16 15 15 15 16 13 9 8 11 15 16 16
7 8 8 8 8 7 6 4 2 1 2 4 4 3 4 5 5 4 8 11 10 9 7 3 9 10 6 8 13 18 16 15 16 14 14 16 14 15 17 12 8 11 14 16 15
8 8 9 9 8 8 7 5 5 4 3 3 3 2 4 4 7 7 5 10 13 11 8 4 3 8 2 2 6 12 15 18 12 16 15 16 15 14 18 15 13 12 16 18 17
8 8 9 9 9 9 8 6 6 6 4 2 1 2 3 3 6 6 7 10 11 13 11 7 5 4 9 9 6 7 12 16 12 15 14 15 17 13 16 14 15 15 17 18 20
8 8 9 10 10 9 8 8 8 7 7 5 3 2 2 2 3 5 6 9 11 11 12 8 7 4 8 5 6 6 9 8 13 12 11 14 13 15 13 12 13 16 18 20 19
8 9 9 9 10 9 9 9 10 10 10 8 7 6 5 3 2 2 3 4 6 7 2 3 3 2 4 2 3 2 1 7 8 7 8 10 11 11 11 9 11 16 19 16 15
3 5 7 9 10 10 10 11 11 11 10 9 7 7 5 4 3 2 1 2 4 6 4 2 3 3 3 5 2 2 1 4 10 7 8 10 8 9 10 10 7 7 13 15 12
5 4 5 6 7 8 8 8 8 8 8 7 6 6 6 5 5 2 3 1 3 3 4 2 4 3 7 5 1 5 8 9 10 9 6 6 8 8 9 8 6 3 5 8 9
5 6 6 6 7 7 8 8 7 7 7 7 9 9 6 5 5 5 5 4 3 2 3 3 4 3 4 6 2 2 4 10 13 7 5 8 7 8 8 8 7 5 4 5 6
3 4 5 6 7 7 8 8 8 8 7 7 7 6 7 7 7 6 6 6 5 2 2 2 3 2 3 5 9 8 6 5 12 13 12 10 9 5 7 4 5 5 6 6 10
4 4 4 5 6 6 7 7 8 8 8 8 9 8 8 7 7 7 8 9 7 6 7 6 5 4 3 1 5 14 13 10 4 10 15 21 18 12 12 11 6 4 2 4 7
6 7 7 7 7 7 7 7 7 9 9 9 8 8 7 8 7 5 6 8 9 10 10 7 5 4 2 0 3 11 15 14 9 8 11 17 14 12 10 8 7 6 6 3 3
9 9 9 10 10 9 10 9 8 9 12 11 11 10 8 7 7 5 6 7 10 11 10 7 4 5 6 6 5 11 12 8 11 9 13 14 15 12 11 11 10 10 9 2 4
11 12 12 13 11 12 13 13 13 14 15 12 11 10 9 9 8 7 7 6 5 5 8 9 6 3 3 4 4 11 13 10 6 6 6 18 18 14 13 13 9 2 6 3 5
16 13 14 15 16 16 15 16 17 18 16 15 14 14 14 14 14 13 12 11 9 9 10 13 7 6 8 8 8 10 15 13 8 6 10 15 13 19 16 15 11 7 12 6 3
19 20 17 19 19 19 20 21 22 21 20 17 16 17 18 17 18 18 18 15 13 12 14 13 12 10 9 10 13 14 16 15 11 8 11 8 7 14 8 13 9 8 6 11 5
21 22 22 22 22 22 23 23 25 26 25 22 22 23 23 22 20 20 21 21 20 20 18 19 18 18 14 15 17 17 16 17 19 15 13 11 3 10 10 6 9 12 10 13 10
22 23 22 22 23 23 25 26 28 27 27 25 25 26 27 27 24 23 25 27 26 25 26 24 24 24 22 21 21 17 17 20 21 23 19 12 10 7 13 12 13 13 15 13 11
21 22 21 22 22 23 24 26 28 28 28 29 28 28 29 29 28 27 23 27 30 31 29 28 28 27 28 27 25 24 22 23 27 29 23 19 15 14 16 16 15 17 20 18 13
22 22 22 23 25 25 26 27 28 29 30 32 32 30 28 28 28 28 29 31 29 31 33 33 33 27 30 30 32 31 31 31 31 27 27 29 17 18 20 21 22 21 22 21 15
26 26 26 28 29 29 30 32 33 34 35 36 38 37 37 37 36 35 35 35 34 34 35 36 38 35 31 33 36 38 34 34 34 34 33 33 22 20 26 26 26 24 22 23 22
27 28 29 30 30 31 33 35 37 38 40 41 42 43 43 44 44 44 44 43 43 41 41 41 41 41 40 38 37 40 40 39 39 41 37 39 32 25 27 31 28 27 24 24 25
30 31 31 31 32 34 35 35 35 36 37 38 40 41 42 43 44 46 48 50 49 49 49 50 49 49 47 46 45 43 42 41 43 42 44 40 39 34 34 35 33 32 31 28 26
32 32 33 33 33 33 33 32 32 32 34 33 34 36 38 40 42 44 46 47 49 52 53 55 56 57 57 54 55 53 49 47 46 46 48 45 41 39 41 35 36 35 35 34 30
33 33 34 34 35 34 33 33 33 32 34 36 37 39 42 44 46 48 50 51 52 53 54 55 57 59 62 64 64 63 60 55 54 54 53 54 49 45 42 38 38 38 36 34 35
Wind_Direction
202 202 201 197 185 132 55 16 24 41 49 60 50 57 72 75 110 104 109 97 102 103 99 116 118 102 87 105 103 114 107 100 87 78 65 61 65 73 77 83 95 108 119 115 119
194 199 198 196 196 197 164 339 338 13 70 69 77 38 78 81 111 120 130 117 120 122 112 94 109 102 89 77 90 97 110 99 94 88 82 72 69 80 95 96 85 116 126 126 117
190 196 205 207 197 203 206 242 283 284 96 91 81 104 98 107 107 135 149 124 131 132 104 75 70 94 93 69 94 96 98 95 88 91 90 79 77 88 101 116 110 114 131 133 128
193 199 200 210 215 212 213 203 205 176 124 100 93 83 101 123 137 134 155 135 141 120 102 68 96 63 34 78 92 94 100 100 100 99 95 92 84 95 103 105 109 120 138 140 137
200 205 210 212 214 230 225 209 175 178 158 113 74 41 73 89 104 113 136 147 147 135 127 100 94 20 76 70 89 93 111 105 99 91 90 93 95 95 103 107 109 117 138 145 149
214 211 219 222 224 227 227 208 188 183 189 196 103 356 23 20 62 84 116 146 157 159 173 193 193 72 67 163 143 94 95 99 70 89 96 90 89 90 92 98 106 105 127 148 153
226 221 222 226 226 222 220 207 201 204 219 225 234 262 329 351 22 71 103 129 161 169 208 195 223 178 83 135 107 99 92 85 59 82 89 97 94 90 90 101 114 113 107 128 143
221 225 222 226 224 216 214 210 215 222 230 238 243 238 232 244 272 23 75 104 136 162 335 10 274 318 50 142 263 209 169 105 105 87 103 95 99 98 106 105 129 133 124 117 127
185 209 213 217 219 213 212 220 222 225 227 231 229 224 237 241 254 260 56 94 72 80 114 156 205 202 212 233 330 175 282 208 130 106 115 109 111 127 122 124 139 132 129 131 138
124 142 153 173 182 176 173 189 193 196 198 196 194 196 206 208 226 253 231 201 108 94 104 153 191 189 217 180 50 80 114 121 170 157 147 130 136 140 140 135 137 156 132 141 149
118 125 131 138 150 144 143 144 163 174 191 198 178 172 181 209 209 219 221 227 199 142 104 137 200 196 228 177 153 119 131 119 118 128 146 150 120 138 147 152 156 179 204 185 189
154 142 144 141 147 153 163 170 168 160 153 165 173 160 158 185 188 189 216 225 243 211 232 223 214 186 148 164 207 210 200 158 135 122 135 166 137 149 126 140 140 165 210 210 196
240 214 190 176 168 165 179 176 172 171 162 159 160 157 155 163 186 181 201 223 230 236 239 245 246 215 183 58 238 222 203 195 191 161 158 160 158 155 173 165 167 151 175 207 203
262 250 233 220 201 183 197 188 187 185 182 186 180 181 177 169 162 163 185 213 221 226 241 256 291 330 51 204 287 232 221 210 206 212 207 198 192 168 168 158 154 165 172 207 204
264 258 254 243 229 215 208 214 214 205 206 201 207 215 212 208 195 175 188 210 218 233 250 268 294 330 335 316 322 264 285 254 205 223 231 227 217 198 168 169 184 176 164 182 236
256 251 250 250 243 232 225 225 226 230 228 233 229 234 238 231 225 218 214 212 226 230 248 264 244 278 285 287 275 274 284 279 236 220 222 223 221 211 179 195 192 207 163 190 231
251 247 241 243 244 240 237 233 235 238 239 244 246 244 246 246 241 241 240 231 222 221 227 254 264 244 254 258 257 257 270 270 241 229 203 241 244 215 215 197 198 184 211 209 240
244 249 241 240 240 241 240 241 243 242 243 243 251 252 250 251 255 251 249 242 238 232 238 256 254 250 245 250 258 273 275 283 282 254 242 276 149 194 200 205 208 243 257 268 241
249 249 248 247 244 243 242 243 246 247 246 243 248 252 253 254 252 257 257 253 247 241 235 236 239 243 238 239 251 261 272 280 282 281 274 286 201 201 201 199 244 229 245 252 260
252 252 252 251 251 247 246 246 248 251 252 250 244 248 253 255 253 253 257 253 252 249 249 246 245 254 247 249 250 257 258 262 275 274 274 276 261 196 213 214 239 240 222 243 246
257 258 256 253 251 249 249 249 252 254 258 260 257 251 251 255 255 252 241 253 257 257 258 256 256 256 253 256 246 246 246 253 261 264 273 269 261 254 233 241 239 257 260 256 228
259 257 254 252 252 250 250 253 256 257 256 259 262 263 258 256 257 258 258 252 249 254 259 260 257 247 260 257 258 254 253 250 250 261 264 264 257 252 243 245 250 254 254 259 268
261 258 258 257 256 255 254 254 254 254 255 256 258 261 263 263 263 259 257 257 259 257 256 258 262 261 246 247 258 263 259 257 257 254 252 258 256 258 253 252 249 252 248 258 264
263 261 258 257 257 257 257 257 257 257 259 258 257 257 258 260 263 266 267 266 265 264 264 264 262 262 262 257 248 252 260 259 259 257 256 253 251 250 257 255 254 255 249 255 264
260 260 259 259 259 258 258 257 256 256 255 257 258 260 262 263 263 262 263 265 266 265 264 265 267 267 266 264 261 255 251 254 259 260 258 257 253 248 244 253 254 250 255 252 254
264 264 263 261 257 256 256 255 254 256 258 256 258 261 261 261 262 263 263 262 262 264 262 260 259 263 265 265 265 259 256 255 252 254 258 259 256 253 252 245 254 257 254 254 254
265 266 265 261 259 256 254 252 251 251 254 258 260 259 260 263 264 264 263 263 263 262 262 262 260 258 256 256 256 260 261 258 258 252 252 256 257 253 254 255 253 255 258 259 258